This demonstration page uses our WeatherBlox Daily Observations layout. Learn more.

41.55636, -103.73856

Hourly Observations for August 24, 2015

Temp ( °F °C ) Dew Point ( °F °C ) Humidity (%) Winds ( mph kmh ) Pressure ( in mb ) Visibility ( mi km ) Precip ( " mm )
12:53 am 00:53 Clear 52 11.1 44 6.7 75 75 ESE 7 11 30.11 1020 10 16.0934 0 0
1:53 am 01:53 Clear 51 10.6 43 6.1 74 74 ESE 9 15 30.1 1019 10 16.0934 0 0
2:53 am 02:53 Clear 49 9.4 43 6.1 80 80 ENE 3 6 30.1 1019 10 16.0934 0 0
3:53 am 03:53 Clear 47 8.3 42 5.6 83 83 E 6 9 30.1 1019 10 16.0934 0 0
4:53 am 04:53 Clear 47 8.3 41 5 80 80 ESE 5 7 30.09 1019 10 16.0934 0 0
5:53 am 05:53 Clear 46 7.8 41 5 83 83 E 3 6 30.09 1019 10 16.0934 0 0
6:53 am 06:53 Sunny 47 8.3 42 5.6 83 83 E 3 6 30.11 1020 10 16.0934 0 0
7:53 am 07:53 Sunny 51 10.6 42 5.6 71 71 WSW 3 6 30.15 1021 10 16.0934 0 0
8:53 am 08:53 Sunny 57 13.9 45 7.2 64 64 NW 8 13 30.14 1021 10 16.0934 0 0
9:30 am 09:30 Mostly Sunny 61 16 46 8 59 59 NW 8 13 30.06 1018 10 16.0934 0 0
9:53 am 09:53 Sunny 63 17.2 47 8.3 56 56 NW 6 9 30.15 1021 10 16.0934 0 0
10:53 am 10:53 Sunny 68 20 46 7.8 45 45 NW 5 7 30.14 1021 10 16.0934 0 0
11:53 am 11:53 Sunny 74 23.3 47 8.3 38 38 VRB 5 7 30.11 1020 10 16.0934 0 0
12:53 pm 12:53 Sunny 78 25.6 48 8.9 35 35 VRB 5 7 30.09 1019 10 16.0934 0 0
1:53 pm 13:53 Sunny 81 27.2 50 10 34 34 VRB 3 6 30.06 1018 10 16.0934 0 0
2:53 pm 14:53 Sunny 84 28.9 52 11.1 33 33 VRB 3 6 30.04 1017 10 16.0934 0 0
3:53 pm 15:53 Sunny 85 29.4 49 9.4 29 29 E 6 9 30.04 1017 10 16.0934 0 0
4:53 pm 16:53 Sunny 85 29.4 49 9.4 29 29 ESE 6 9 30.02 1017 10 16.0934 0 0
5:53 pm 17:53 Sunny 84 28.9 49 9.4 30 30 SSE 7 11 30.02 1017 9 14.48406 0 0
6:53 pm 18:53 Sunny 80 26.7 55 12.8 42 42 ESE 3 6 30.03 1017 9 14.48406 0 0
7:53 pm 19:53 Clear 70 21.1 56 13.3 61 61 ENE 8 13 30.06 1018 10 16.0934 0 0
8:53 pm 20:53 Clear 68 20 52 11.1 57 57 undefined N/A 30.08 1019 10 16.0934 0 0
9:53 pm 21:53 Clear 64 17.8 52 11.1 65 65 E 8 13 30.09 1019 10 16.0934 0 0
10:53 pm 22:53 Clear 62 16.7 52 11.1 70 70 ESE 7 11 30.07 1018 10 16.0934 0 0
11:53 pm 23:53 Clear 61 16.1 52 11.1 72 72 ESE 8 13 30.06 1018 10 16.0934 0 0

Powered by AerisWeather